TimeEDT,TemperatureF,Dew PointF,Humidity,Sea Level PressureIn,VisibilityMPH,Wind Direction,Wind SpeedMPH,Gust SpeedMPH,PrecipitationIn,Events,Conditions,WindDirDegrees,DateUTC
12:53 AM,48.9,30.9,50,29.95,10.0,WNW,5.8,-,N/A,,Overcast,300,2014-03-15 04:53:00
1:53 AM,45.0,32.0,60,29.96,10.0,WNW,5.8,-,N/A,,Clear,290,2014-03-15 05:53:00
2:53 AM,39.9,30.9,70,29.98,10.0,West,4.6,-,N/A,,Clear,280,2014-03-15 06:53:00
3:53 AM,41.0,32.0,70,29.99,10.0,West,3.5,-,N/A,,Clear,280,2014-03-15 07:53:00
4:53 AM,35.1,30.0,82,29.99,10.0,WNW,3.5,-,N/A,,Clear,290,2014-03-15 08:53:00
5:53 AM,33.1,28.0,82,30.00,10.0,Calm,Calm,-,N/A,,Clear,0,2014-03-15 09:53:00
6:53 AM,34.0,28.9,82,30.02,10.0,WNW,3.5,-,N/A,,Clear,290,2014-03-15 10:53:00
7:53 AM,35.1,28.9,78,30.03,10.0,West,4.6,-,N/A,,Clear,260,2014-03-15 11:53:00
8:53 AM,37.0,30.9,79,30.06,10.0,WSW,3.5,-,N/A,,Clear,250,2014-03-15 12:53:00
9:53 AM,45.0,33.1,63,30.07,10.0,Variable,5.8,-,N/A,,Clear,0,2014-03-15 13:53:00
10:53 AM,48.9,32.0,52,30.09,10.0,Variable,5.8,-,N/A,,Clear,0,2014-03-15 14:53:00
11:53 AM,51.1,30.9,46,30.10,10.0,WSW,9.2,-,N/A,,Clear,250,2014-03-15 15:53:00
12:53 PM,54.0,28.9,38,30.10,10.0,Variable,6.9,-,N/A,,Clear,0,2014-03-15 16:53:00
1:53 PM,55.9,28.9,36,30.09,10.0,West,9.2,-,N/A,,Clear,280,2014-03-15 17:53:00
2:53 PM,57.0,28.0,33,30.08,10.0,Variable,5.8,-,N/A,,Clear,0,2014-03-15 18:53:00
3:53 PM,57.9,25.0,28,30.05,10.0,Calm,Calm,-,N/A,,Clear,0,2014-03-15 19:53:00
4:53 PM,60.1,25.0,26,30.04,10.0,Calm,Calm,-,N/A,,Clear,0,2014-03-15 20:53:00
5:53 PM,57.9,26.1,30,30.03,10.0,SE,4.6,-,N/A,,Clear,130,2014-03-15 21:53:00
6:53 PM,60.1,25.0,26,30.02,10.0,Calm,Calm,-,N/A,,Clear,0,2014-03-15 22:53:00
7:53 PM,54.0,27.0,35,30.03,10.0,East,3.5,-,N/A,,Clear,80,2014-03-15 23:53:00
8:53 PM,39.9,28.9,65,30.04,10.0,North,3.5,-,N/A,,Clear,350,2014-03-16 00:53:00
9:53 PM,50.0,27.0,41,30.04,10.0,NE,6.9,-,N/A,,Clear,50,2014-03-16 01:53:00
10:53 PM,46.9,26.1,44,30.06,10.0,NE,13.8,-,N/A,,Clear,50,2014-03-16 02:53:00
11:53 PM,44.1,28.0,53,30.08,10.0,NE,11.5,-,N/A,,Clear,50,2014-03-16 03:53:00